Copper Harbor, MI

7:07 AM EST on February 25, 2017 (GMT -0500)
Copper Harbor

Weather History for KP59 - August, 2013

Change the Weather History Date:

Saturday, August 17, 2013

  Actual Average Record
Temperature  
Mean Temperature 70 °F -  
Max Temperature 80 °F 68 °F 87 °F (2008)
Min Temperature 61 °F 51 °F 44 °F (1997)
Cooling Degree Days 5    
Growing Degree Days 20 (Base 50)    
Moisture  
Dew Point 55 °F    
Average Humidity 61    
Maximum Humidity 78    
Minimum Humidity 38    
Precipitation  
Precipitation 0.00 in - - ()
Sea Level Pressure  
Sea Level Pressure 30.10 in    
Wind  
Wind Speed 7 mph (WNW)    
Max Wind Speed 12 mph    
Max Gust Speed 22 mph    
Averages and records for this station are not official NWS values.
T = Trace of Precipitation, MM = Missing Value Source: NWS Daily Summary

Daily Weather History Graph

Daily Weather History Graph

Search for Another Location

Airport or City:

Trip Planner

Search our weather history database for the weather conditions in past years. The results will help you decide how hot, cold, wet, or windy it might be!

Date:

Astronomy

Aug. 17, 2013 Rise Set
Actual Time 6:50 AM EDT 8:59 PM EDT
Civil Twilight 6:17 AM EDT 9:32 PM EDT
Nautical Twilight 5:35 AM EDT 10:14 PM EDT
Astronomical Twilight 4:48 AM EDT 11:00 PM EDT
Moon 6:21 PM EDT (8/17) 2:45 AM EDT (8/17)
Length of Visible Light 15h 15m
Length of Day
14h 08m
Waxing Gibbous, 84% of the Moon is Illuminated
Aug 17
Waxing Gibbous
Aug 20
Full
Aug 28
Last Quarter
Sep 5
New
Sep 12
First Quarter

Hourly Weather History & Observations

Time (EDT) Temp. Dew Point Humidity Pressure Visibility Wind Dir Wind Speed Gust Speed Precip Events Conditions
12:51 AM 61.0 °F 54.0 °F 78% 30.12 in - WSW 8.1 mph - N/A   Unknown
1:51 AM 62.1 °F 55.0 °F 78% 30.11 in - SW 8.1 mph - N/A   Unknown
2:51 AM 63.0 °F 55.9 °F 78% 30.10 in - WSW 8.1 mph - N/A   Unknown
3:51 AM 64.0 °F 54.0 °F 70% 30.10 in - SW 8.1 mph - N/A   Unknown
4:51 AM 64.9 °F 54.0 °F 68% 30.11 in - WSW 8.1 mph - N/A   Unknown
5:51 AM 66.0 °F 54.0 °F 65% 30.11 in - Variable 5.8 mph - N/A   Unknown
6:51 AM 66.9 °F 55.9 °F 68% 30.11 in - Variable 4.6 mph - N/A   Unknown
7:51 AM 66.9 °F 55.9 °F 68% 30.12 in - NNW 4.6 mph - N/A   Unknown
8:51 AM 69.1 °F 57.9 °F 68% 30.13 in - Calm Calm - N/A   Unknown
9:51 AM 73.9 °F 57.0 °F 55% 30.14 in - Variable 5.8 mph - N/A   Unknown
10:51 AM 77.0 °F 55.0 °F 47% 30.14 in - NNW 5.8 mph - N/A   Unknown
11:51 AM 75.9 °F 55.9 °F 50% 30.14 in - NNW 10.4 mph 17.3 mph N/A   Unknown
12:51 PM 78.1 °F 53.1 °F 42% 30.13 in - NW 8.1 mph 18.4 mph N/A   Unknown
1:51 PM 79.0 °F 52.0 °F 39% 30.12 in - NNW 11.5 mph 21.9 mph N/A   Unknown
2:51 PM 79.0 °F 51.1 °F 38% 30.10 in - NNW 10.4 mph 17.3 mph N/A   Unknown
3:51 PM 79.0 °F 52.0 °F 39% 30.09 in - Variable 5.8 mph 16.1 mph N/A   Unknown
4:51 PM 78.1 °F 55.9 °F 46% 30.08 in - North 10.4 mph - N/A   Unknown
5:51 PM 75.9 °F 55.9 °F 50% 30.07 in - Calm Calm - N/A   Unknown
6:51 PM 73.9 °F 57.9 °F 57% 30.06 in - North 8.1 mph - N/A   Unknown
7:51 PM 72.0 °F 59.0 °F 64% 30.07 in - NNW 4.6 mph - N/A   Unknown
8:51 PM 70.0 °F 57.0 °F 63% 30.06 in - WSW 5.8 mph - N/A   Unknown
9:51 PM 66.0 °F 57.0 °F 73% 30.06 in - WSW 5.8 mph - N/A   Unknown
10:51 PM 64.9 °F 55.9 °F 73% 30.06 in - SW 5.8 mph - N/A   Unknown
11:51 PM 64.0 °F 55.9 °F 75% 30.05 in - WSW 5.8 mph - N/A   Unknown